Date,TemperatureHighF,TemperatureAvgF,TemperatureLowF,DewpointHighF,DewpointAvgF,DewpointLowF,HumidityHigh,HumidityAvg,HumidityLow,PressureMaxIn,PressureMinIn,WindSpeedMaxMPH,WindSpeedAvgMPH,GustSpeedMaxMPH,PrecipitationSumIn
2013-2-1,31.2,20.0,8.3,14.6,5.4,0.2,73,54,34,30.58,30.31,3,0,5,0.00
2013-2-2,44.5,34.6,27.3,29.9,21.9,12.8,94,60,42,30.30,30.11,3,1,8,0.00
2013-2-3,36.7,30.9,25.8,30.0,23.2,16.0,97,75,45,30.25,30.06,4,1,7,0.09
2013-2-4,61.9,40.7,27.7,36.9,29.3,22.0,87,66,35,30.05,29.81,3,0,11,0.02
2013-2-5,58.9,38.4,23.8,34.8,28.9,22.2,95,72,37,30.18,29.93,4,0,7,0.00
2013-2-6,52.7,39.0,24.9,33.5,29.6,23.7,96,72,45,30.29,30.09,2,0,6,0.00
2013-2-7,56.7,43.9,33.7,47.8,37.7,30.2,96,79,57,30.09,29.88,2,0,5,0.04
2013-2-8,40.0,35.5,30.6,37.3,30.8,26.3,91,83,75,30.42,30.08,3,1,4,0.00
2013-2-9,43.1,35.4,29.6,35.9,28.8,25.6,94,77,60,30.42,30.07,3,1,5,0.16
2013-2-10,56.3,47.3,37.5,53.9,42.7,31.1,98,86,45,30.07,29.63,4,1,7,0.63
2013-2-11,52.2,41.7,28.6,32.4,27.3,25.1,88,58,37,30.19,29.81,4,2,10,0.00
2013-2-12,46.8,35.9,23.8,33.8,29.0,22.6,96,77,54,30.22,29.98,1,0,4,0.00
2013-2-13,56.3,43.6,36.7,33.6,30.8,26.1,84,64,32,29.99,29.84,3,0,7,0.00
2013-2-14,57.4,45.7,34.3,35.7,31.8,28.7,87,61,34,30.10,29.86,4,1,6,0.00
2013-2-15,42.0,35.3,26.9,32.6,20.4,11.5,80,56,31,30.31,30.10,3,1,6,0.00
2013-2-16,39.0,27.9,20.5,18.5,13.1,7.5,78,56,28,30.33,30.22,2,0,5,0.00
2013-2-17,49.7,35.7,19.8,32.6,23.0,13.8,84,62,35,30.24,29.95,3,1,7,0.00
2013-2-18,57.4,45.9,33.8,48.3,39.5,24.4,94,79,66,29.95,29.59,4,1,9,0.11
2013-2-19,38.0,30.7,24.1,25.2,16.1,9.9,75,55,36,30.36,29.95,4,2,9,0.00
2013-2-20,27.5,23.5,18.4,15.0,11.8,8.9,74,61,51,30.47,30.35,3,1,4,0.00
2013-2-21,30.9,26.5,21.7,29.9,23.3,14.4,96,88,70,30.38,29.89,7,3,14,0.00
2013-2-22,34.4,28.0,19.6,25.6,22.0,18.0,94,79,65,30.14,30.05,2,0,3,0.05
2013-2-23,39.7,26.3,15.0,23.4,18.9,13.3,94,76,46,30.13,30.04,2,0,3,0.13
2013-2-24,44.6,32.2,16.4,29.2,23.8,14.7,95,73,48,30.18,30.08,3,0,4,0.10
2013-2-25,45.1,35.5,24.9,33.8,29.4,23.4,95,80,56,30.11,29.63,5,2,7,0.23
2013-2-26,44.4,37.2,34.1,42.0,35.7,31.6,97,94,88,29.72,29.38,6,2,9,0.59
2013-2-27,35.6,33.3,31.7,32.7,30.7,27.8,94,90,85,29.95,29.72,3,1,14,0.06
2013-2-28,35.5,33.0,31.5,30.6,29.2,28.0,93,86,78,30.15,29.94,2,0,6,0.00